Rickenbacker, OH

3:33 PM EDT on March 23, 2017 (GMT -0400)
Rickenbacker International

Weather History for KLCK - March, 2014

Change the Weather History Date:

Saturday, March 8, 2014

  Actual Average Record
Temperature  
Mean Temperature 44 °F -  
Max Temperature 55 °F 45 °F 73 °F (2002)
Min Temperature 32 °F 27 °F 17 °F (1999)
Degree Days  
Heating Degree Days 22    
Moisture  
Dew Point 30 °F    
Average Humidity 68    
Maximum Humidity 85    
Minimum Humidity 42    
Precipitation  
Precipitation 0.00 in - - ()
Sea Level Pressure  
Sea Level Pressure 30.01 in    
Wind  
Wind Speed 5 mph (West)    
Max Wind Speed 14 mph    
Max Gust Speed 17 mph    
Visibility 9 miles    
Events      
Averages and records for this station are not official NWS values.
T = Trace of Precipitation, MM = Missing Value Source: NWS Daily Summary

Daily Weather History Graph

Daily Weather History Graph

Search for Another Location

Airport or City:

Trip Planner

Search our weather history database for the weather conditions in past years. The results will help you decide how hot, cold, wet, or windy it might be!

Date:

Astronomy

Mar. 08, 2014 Rise Set
Actual Time 6:54 AM EST 6:31 PM EST
Civil Twilight 6:27 AM EST 6:58 PM EST
Nautical Twilight 5:56 AM EST 7:29 PM EST
Astronomical Twilight 5:24 AM EST 8:01 PM EST
Moon 11:35 AM EST (3/8) 1:27 AM EST (3/8)
Length of Visible Light 12h 30m
Length of Day
11h 37m
First Quarter, 51% of the Moon is Illuminated
Mar 8
First Quarter
Mar 16
Full
Mar 23
Last Quarter
Mar 30
New
Apr 7
First Quarter

Hourly Weather History & Observations

Time (EST) Temp. Windchill Dew Point Humidity Pressure Visibility Wind Dir Wind Speed Gust Speed Precip Events Conditions
12:15 AM 33.6 °F - 28.8 °F 82% 29.95 in 10.0 mi Calm Calm - N/A   Clear
12:35 AM 34.0 °F - 28.8 °F 81% 29.95 in 10.0 mi Calm Calm - N/A   Clear
12:55 AM 33.4 °F - 28.6 °F 82% 29.95 in 10.0 mi Calm Calm - N/A   Clear
1:15 AM 33.3 °F 30.2 °F 28.6 °F 83% 29.96 in 10.0 mi SSW 3.5 mph - N/A   Clear
1:35 AM 34.3 °F 30.2 °F 29.1 °F 81% 29.96 in 10.0 mi SSW 4.6 mph - N/A   Clear
1:55 AM 34.0 °F - 28.8 °F 81% 29.96 in 10.0 mi Calm Calm - N/A   Clear
2:15 AM 33.8 °F 30.8 °F 28.6 °F 81% 29.96 in 10.0 mi South 3.5 mph - N/A   Clear
2:35 AM 33.3 °F 28.9 °F 28.6 °F 83% 29.96 in 10.0 mi South 4.6 mph - N/A   Clear
2:55 AM 33.3 °F 27.9 °F 28.9 °F 84% 29.95 in 10.0 mi South 5.8 mph - N/A   Clear
3:15 AM 32.5 °F - 28.4 °F 85% 29.95 in 10.0 mi Calm Calm - N/A   Clear
3:35 AM 32.2 °F 28.9 °F 28.2 °F 85% 29.95 in 10.0 mi South 3.5 mph - N/A   Clear
3:55 AM 32.0 °F 28.7 °F 28.0 °F 85% 29.95 in 10.0 mi South 3.5 mph - N/A   Clear
4:15 AM 32.0 °F 28.7 °F 27.7 °F 84% 29.95 in 10.0 mi South 3.5 mph - N/A   Clear
4:35 AM 32.0 °F 28.7 °F 28.0 °F 85% 29.96 in 10.0 mi South 3.5 mph - N/A   Clear
4:55 AM 32.0 °F 27.5 °F 27.7 °F 84% 29.96 in 10.0 mi South 4.6 mph - N/A   Clear
5:15 AM 32.0 °F - 27.9 °F 85% 29.96 in 10.0 mi Calm Calm - N/A   Clear
5:30 AM 32.0 °F - 27.9 °F 85% 29.97 in 10.0 mi Calm Calm - N/A   Clear
5:55 AM 32.5 °F 28.1 °F 28.0 °F 83% 29.96 in 10.0 mi South 4.6 mph - N/A   Clear
6:15 AM 32.2 °F 27.7 °F 27.9 °F 84% 29.98 in 10.0 mi SW 4.6 mph - N/A   Clear
6:35 AM 32.4 °F 29.1 °F 27.5 °F 82% 29.98 in 10.0 mi SW 3.5 mph - N/A   Clear
6:55 AM 32.2 °F 27.7 °F 27.9 °F 84% 29.98 in 10.0 mi South 4.6 mph - N/A   Clear
7:15 AM 33.1 °F 30.0 °F 28.4 °F 83% 30.00 in 10.0 mi South 3.5 mph - N/A   Clear
7:35 AM 33.6 °F - 28.6 °F 82% 30.01 in 10.0 mi Calm Calm - N/A   Mostly Cloudy
7:55 AM 34.3 °F 30.2 °F 29.5 °F 82% 30.01 in 10.0 mi SW 4.6 mph - N/A   Overcast
8:15 AM 35.4 °F 30.5 °F 30.4 °F 82% 30.02 in 10.0 mi SW 5.8 mph - N/A   Overcast
8:35 AM 37.2 °F 32.6 °F 31.3 °F 79% 30.03 in 10.0 mi SW 5.8 mph - N/A   Mostly Cloudy
8:55 AM 40.3 °F 36.3 °F 32.4 °F 73% 30.03 in 10.0 mi WSW 5.8 mph - N/A   Overcast
9:15 AM 42.3 °F 37.9 °F 32.9 °F 69% 30.03 in 10.0 mi SW 6.9 mph - N/A   Overcast
9:35 AM 43.7 °F 40.3 °F 33.4 °F 67% 30.03 in 10.0 mi West 5.8 mph - N/A   Overcast
9:55 AM 45.3 °F 41.6 °F 33.8 °F 64% 30.03 in 7.0 mi West 6.9 mph - N/A   Mostly Cloudy
10:20 AM 46.6 °F - 33.6 °F 61% 30.03 in 7.0 mi West 5.8 mph - N/A   Mostly Cloudy
10:35 AM 47.1 °F - 33.4 °F 59% 30.03 in 7.0 mi West 4.6 mph - N/A   Mostly Cloudy
10:55 AM 48.0 °F - 33.4 °F 57% 30.02 in 7.0 mi SSW 3.5 mph - N/A   Overcast
11:15 AM 49.5 °F - 33.6 °F 54% 30.03 in 7.0 mi WSW 4.6 mph - N/A   Mostly Cloudy
11:35 AM 50.9 °F - 33.6 °F 52% 30.02 in 10.0 mi WSW 4.6 mph - N/A   Scattered Clouds
11:55 AM 52.0 °F - 33.6 °F 50% 30.01 in 10.0 mi WNW 6.9 mph - N/A   Clear
12:15 PM 52.9 °F - 32.7 °F 46% 30.02 in 10.0 mi West 8.1 mph - N/A   Clear
12:35 PM 53.6 °F - 33.1 °F 46% 30.01 in 10.0 mi WSW 4.6 mph - N/A   Clear
12:55 PM 54.3 °F - 32.4 °F 43% 30.00 in 10.0 mi WSW 6.9 mph - N/A   Clear
1:15 PM 54.5 °F - 32.2 °F 43% 30.00 in 10.0 mi WSW 11.5 mph - N/A   Clear
1:35 PM 55.0 °F - 32.7 °F 43% 29.99 in 10.0 mi West 10.4 mph - N/A   Scattered Clouds
1:55 PM 55.2 °F - 32.5 °F 42% 29.99 in 10.0 mi West 9.2 mph - N/A   Mostly Cloudy
2:15 PM 55.0 °F - 32.9 °F 43% 29.98 in 10.0 mi WSW 12.7 mph - N/A   Mostly Cloudy
2:35 PM 55.0 °F - 32.2 °F 42% 29.98 in 10.0 mi WSW 9.2 mph - N/A   Mostly Cloudy
2:55 PM 55.4 °F - 32.4 °F 42% 29.98 in 10.0 mi West 10.4 mph - N/A   Mostly Cloudy
3:15 PM 54.7 °F - 32.0 °F 42% 29.99 in 10.0 mi West 12.7 mph - N/A   Mostly Cloudy
3:35 PM 54.0 °F - 32.0 °F 43% 29.99 in 10.0 mi West 11.5 mph - N/A   Mostly Cloudy
3:55 PM 53.4 °F - 32.2 °F 44% 29.98 in 10.0 mi West 8.1 mph - N/A   Mostly Cloudy
4:15 PM 53.4 °F - 32.7 °F 45% 29.98 in 10.0 mi WNW 5.8 mph - N/A   Mostly Cloudy
4:35 PM 54.1 °F - 33.1 °F 45% 29.98 in 10.0 mi West 9.2 mph - N/A   Scattered Clouds
4:55 PM 54.1 °F - 32.7 °F 44% 29.99 in 10.0 mi West 8.1 mph - N/A   Clear
5:15 PM 53.4 °F - 33.6 °F 47% 30.00 in 7.0 mi NNW 11.5 mph 17.3 mph N/A   Clear
5:35 PM 50.4 °F - 35.2 °F 56% 30.00 in 5.0 mi NNW 12.7 mph - N/A   Haze
5:55 PM 47.5 °F - 35.6 °F 63% 30.01 in 4.0 mi NNW 12.7 mph - N/A   Haze
6:15 PM 45.3 °F 40.6 °F 34.9 °F 67% 30.02 in 4.0 mi NNW 9.2 mph - N/A   Haze
6:35 PM 43.7 °F 37.3 °F 34.3 °F 70% 30.03 in 4.0 mi North 12.7 mph 16.1 mph N/A   Haze
6:55 PM 41.5 °F 34.6 °F 33.3 °F 72% 30.04 in 4.0 mi NNW 12.7 mph - N/A   Haze
7:15 PM 40.6 °F 34.8 °F 32.2 °F 72% 30.05 in 4.0 mi North 9.2 mph - N/A   Haze
7:35 PM 39.6 °F 32.5 °F 31.6 °F 73% 30.06 in 5.0 mi North 11.5 mph - N/A   Haze
7:55 PM 38.5 °F 30.7 °F 30.6 °F 73% 30.06 in 7.0 mi North 12.7 mph - N/A   Overcast
8:15 PM 37.8 °F 30.2 °F 29.8 °F 73% 30.07 in 7.0 mi North 11.5 mph - N/A   Overcast
8:35 PM 37.0 °F 28.9 °F 29.1 °F 73% 30.07 in 7.0 mi North 12.7 mph - N/A   Scattered Clouds
8:55 PM 36.5 °F 29.7 °F 28.6 °F 73% 30.08 in 7.0 mi North 9.2 mph - N/A   Mostly Cloudy
9:15 PM 36.0 °F 29.0 °F 28.2 °F 73% 30.08 in 7.0 mi North 9.2 mph - N/A   Overcast
9:35 PM 35.6 °F 26.6 °F 27.7 °F 73% 30.09 in 10.0 mi North 13.8 mph 17.3 mph N/A   Mostly Cloudy
9:55 PM 35.1 °F 27.9 °F 27.3 °F 73% 30.10 in 10.0 mi North 9.2 mph - N/A   Overcast
10:15 PM 34.5 °F 26.2 °F 27.0 °F 74% 30.11 in 10.0 mi NNW 11.5 mph 17.3 mph N/A   Overcast
10:35 PM 34.2 °F 26.8 °F 25.9 °F 72% 30.11 in 10.0 mi NNW 9.2 mph - N/A   Overcast
10:55 PM 34.0 °F 26.6 °F 25.7 °F 72% 30.12 in 10.0 mi NNW 9.2 mph - N/A   Overcast
11:15 PM 34.2 °F 26.2 °F 25.5 °F 71% 30.13 in 10.0 mi NNW 10.4 mph - N/A   Overcast
11:35 PM 34.0 °F 25.5 °F 25.2 °F 70% 30.13 in 10.0 mi North 11.5 mph - N/A   Overcast
11:55 PM 33.8 °F 25.3 °F 25.3 °F 71% 30.15 in 10.0 mi North 11.5 mph - N/A   Overcast